Fort Dodge, IA

1:38 PM CDT on October 14, 2019 (GMT -0500)
Fort Dodge Regional

Weather History for KFOD - September, 2019

Change the Weather History Date:

Monday, September 23, 2019

  Actual Average Record
Temperature  
Mean Temperature 64 °F -  
Max Temperature 78 °F 68 °F 90 °F (2017)
Min Temperature 50 °F 42 °F 28 °F (1983)
Degree Days  
Heating Degree Days 1    
Growing Degree Days 14 (Base 50)    
Moisture  
Dew Point 54 °F    
Average Humidity 90    
Maximum Humidity 100    
Minimum Humidity 46    
Precipitation  
Precipitation 0.00 in - - ()
Sea Level Pressure  
Sea Level Pressure 30.06 in    
Wind  
Wind Speed 3 mph (SSW)    
Max Wind Speed 9 mph    
Max Gust Speed -    
Visibility 4 miles    
Events Fog    
Averages and records for this station are not official NWS values.
T = Trace of Precipitation, MM = Missing Value Source: NWS Daily Summary

Daily Weather History Graph

Daily Weather History Graph

Search for Another Location

Airport or City:

Astronomy

Sep. 23, 2019 Rise Set
Actual Time 7:04 AM CDT 7:12 PM CDT
Civil Twilight 6:36 AM CDT 7:40 PM CDT
Nautical Twilight 6:03 AM CDT 8:13 PM CDT
Astronomical Twilight 5:30 AM CDT 8:47 PM CDT
Moon 12:40 AM CDT (9/23) 4:14 PM CDT (9/23)
Length of Visible Light 13h 03m
Length of Day
12h 07m
Waning Crescent, 33% of the Moon is Illuminated
Sep 23
Waning Crescent
Sep 28
New
Oct 5
First Quarter
Oct 13
Full
Oct 21
Last Quarter

Hourly Weather History & Observations

Time (CDT) Temp. Dew Point Humidity Pressure Visibility Wind Dir Wind Speed Gust Speed Precip Events Conditions
12:09 AM 51.8 °F 51.8 °F 100% 30.00 in 0.8 mi Calm Calm - N/A   Overcast
12:20 AM 51.8 °F 51.8 °F 100% 30.00 in 0.5 mi Calm Calm - N/A Fog Fog
12:47 AM 51.8 °F 51.8 °F 100% 30.00 in 0.5 mi SSW 3.5 mph - N/A Fog Fog
12:56 AM 52.0 °F 52.0 °F 100% 30.09 in 0.5 mi South 5.8 mph - N/A Fog Fog
1:08 AM 51.8 °F 51.8 °F 100% 30.01 in 1.0 mi Calm Calm - N/A   Mostly Cloudy
1:12 AM 51.8 °F 51.8 °F 100% 30.01 in 2.5 mi Calm Calm - N/A   Mostly Cloudy
1:19 AM 51.8 °F 51.8 °F 100% 30.01 in 1.8 mi Calm Calm - N/A   Scattered Clouds
1:32 AM 51.8 °F 51.8 °F 100% 30.01 in 3.0 mi SSW 3.5 mph - N/A   Clear
1:56 AM 52.0 °F 52.0 °F 100% 30.09 in 9.0 mi SSW 4.6 mph - N/A   Clear
2:48 AM 51.8 °F 51.8 °F 100% 30.02 in 1.8 mi SW 3.5 mph - N/A   Partly Cloudy
2:56 AM 52.0 °F 52.0 °F 100% 30.10 in 1.5 mi SW 3.5 mph - N/A   Scattered Clouds
3:03 AM 51.8 °F 51.8 °F 100% 30.02 in 0.8 mi SW 3.5 mph - N/A   Mostly Cloudy
3:22 AM 51.8 °F 51.8 °F 100% 30.02 in 0.5 mi SW 4.6 mph - N/A Fog Fog
3:36 AM 51.8 °F 51.8 °F 100% 30.02 in 0.2 mi SW 3.5 mph - N/A Fog Fog
3:56 AM 53.1 °F 53.1 °F 100% 30.10 in 0.2 mi Calm Calm - N/A Fog Fog
4:56 AM 51.1 °F 51.1 °F 100% 30.12 in 0.2 mi SSW 5.8 mph - N/A Fog Fog
5:01 AM 51.8 °F 51.8 °F 100% 30.03 in 0.8 mi SSW 5.8 mph - N/A   Mostly Cloudy
5:30 AM 51.8 °F 51.8 °F 100% 30.03 in 1.0 mi Calm Calm - N/A   Clear
5:41 AM 51.8 °F 51.8 °F 100% 30.04 in 0.5 mi Calm Calm - N/A Fog Fog
5:56 AM 50.0 °F 50.0 °F 100% 30.12 in 0.5 mi Calm Calm - N/A Fog Fog
6:07 AM 51.8 °F 51.8 °F 100% 30.04 in 0.8 mi Calm Calm - N/A   Clear
6:32 AM 51.8 °F 51.8 °F 100% 30.05 in 0.8 mi SSW 3.5 mph - N/A   Clear
6:37 AM 51.8 °F 51.8 °F 100% 30.05 in 0.2 mi SSW 4.6 mph - N/A Fog Fog
6:49 AM 50.0 °F 50.0 °F 100% 30.05 in 0.8 mi SSW 3.5 mph - N/A   Mist
6:53 AM 51.8 °F 51.8 °F 100% 30.06 in 1.2 mi South 5.8 mph - N/A   Scattered Clouds
6:56 AM 51.1 °F 51.1 °F 100% 30.14 in 1.5 mi South 4.6 mph - N/A   Scattered Clouds
6:59 AM 51.8 °F 51.8 °F 100% 30.06 in 0.8 mi South 6.9 mph - N/A   Mostly Cloudy
7:03 AM 51.8 °F 51.8 °F 100% 30.06 in 0.2 mi South 5.8 mph - N/A Fog Fog
7:56 AM 52.0 °F 52.0 °F 100% 30.15 in 0.2 mi Calm Calm - N/A Fog Fog
8:03 AM 53.6 °F 53.6 °F 100% 30.07 in 0.8 mi SSW 4.6 mph - N/A   Mostly Cloudy
8:05 AM 53.6 °F 53.6 °F 100% 30.07 in 1.2 mi SSW 5.8 mph - N/A   Mostly Cloudy
8:09 AM 53.6 °F 53.6 °F 100% 30.07 in 4.0 mi South 4.6 mph - N/A   Mostly Cloudy
8:22 AM 53.6 °F 53.6 °F 100% 30.07 in 10.0 mi SW 4.6 mph - N/A   Partly Cloudy
8:56 AM 55.9 °F 55.9 °F 100% 30.16 in 10.0 mi Calm Calm - N/A   Clear
9:56 AM 62.1 °F 57.9 °F 86% 30.16 in 10.0 mi SW 6.9 mph - N/A   Clear
10:56 AM 66.9 °F 57.9 °F 73% 30.17 in 10.0 mi Variable 4.6 mph - N/A   Clear
11:56 AM 71.1 °F 55.0 °F 57% 30.15 in 10.0 mi WSW 5.8 mph - N/A   Clear
12:56 PM 73.9 °F 53.1 °F 48% 30.13 in 10.0 mi SSW 3.5 mph - N/A   Clear
1:56 PM 75.0 °F 54.0 °F 48% 30.11 in 10.0 mi Calm Calm - N/A   Clear
2:56 PM 75.9 °F 55.9 °F 50% 30.08 in 10.0 mi South 5.8 mph - N/A   Clear
3:56 PM 77.0 °F 55.9 °F 48% 30.06 in 10.0 mi SSW 8.1 mph - N/A   Clear
4:56 PM 78.1 °F 55.9 °F 46% 30.05 in 10.0 mi South 6.9 mph - N/A   Clear
5:56 PM 78.1 °F 57.9 °F 50% 30.04 in 10.0 mi WSW 3.5 mph - N/A   Clear
6:56 PM 69.1 °F 60.1 °F 73% 30.04 in 10.0 mi Calm Calm - N/A   Clear
7:56 PM 64.9 °F 59.0 °F 81% 30.04 in 10.0 mi Calm Calm - N/A   Clear
8:56 PM 64.0 °F 59.0 °F 84% 30.04 in 10.0 mi Calm Calm - N/A   Clear
9:56 PM 64.0 °F 60.1 °F 87% 30.04 in 10.0 mi Calm Calm - N/A   Clear
10:56 PM 64.9 °F 60.1 °F 84% 30.02 in 10.0 mi SSW 8.1 mph - N/A   Clear
11:56 PM 66.0 °F 60.1 °F 81% 30.01 in 10.0 mi SSW 9.2 mph - N/A   Clear